Temperature
19 19 19 18 17 16 15 14 12 12 12 12 12 12 12 12 13 13 14 14 14 14 14 13 13 13 12 12 12 13 13 13 13 13 14 14 14 14 14 15 15 15 15 15
19 19 19 18 18 17 16 15 14 14 13 14 14 13 13 14 14 14 14 15 15 14 14 14 14 13 13 12 12 12 12 12 12 13 13 13 13 13 13 14 14 14 15 15
21 20 19 18 18 17 16 16 15 15 14 15 15 15 15 15 15 15 15 15 15 15 15 15 14 14 13 13 12 12 12 12 12 12 12 12 12 12 12 13 13 13 13 13
21 21 19 18 18 18 17 17 17 16 16 16 16 16 15 15 15 15 15 15 15 15 15 15 15 15 14 13 13 12 12 12 12 12 12 12 12 12 12 12 12 12 12 12
21 20 19 18 18 18 18 17 18 17 17 17 17 17 16 16 15 15 15 15 15 15 15 15 15 15 14 14 13 12 12 12 12 11 11 11 11 11 11 11 11 11 11 11
20 20 19 19 19 18 18 17 18 18 18 17 17 16 16 16 16 15 15 15 15 15 15 15 15 15 15 14 13 12 12 12 11 11 11 11 11 11 11 11 11 11 11 11
20 20 20 19 18 18 17 17 18 17 17 17 17 16 16 16 15 15 15 15 15 15 15 15 15 15 15 14 13 13 12 12 12 12 12 11 11 11 11 11 11 10 10 10
21 20 18 18 18 18 18 18 18 17 17 16 16 16 16 16 15 15 15 15 15 15 15 15 15 15 15 14 14 13 13 12 12 12 12 11 11 11 11 10 10 10 10 10
20 18 18 17 18 18 17 18 17 17 16 16 16 16 16 15 15 15 15 15 15 15 15 15 15 15 15 15 14 14 13 13 13 12 12 11 11 11 10 10 10 10 10 10
20 19 18 17 17 16 17 17 16 16 16 16 16 15 15 15 15 15 15 15 15 15 15 15 15 15 15 15 15 14 14 13 13 12 12 11 11 11 11 11 11 10 10 10
20 20 18 17 17 16 16 16 16 15 15 15 15 15 15 15 14 14 15 15 15 15 15 15 15 15 15 15 15 15 14 14 13 13 12 11 11 11 11 10 10 10 10 10
21 20 19 18 17 16 16 16 16 15 15 15 15 15 15 15 14 14 14 15 15 15 15 15 15 15 15 15 15 15 14 14 13 12 12 11 11 11 10 10 10 10 10 10
21 20 19 18 17 16 16 16 16 15 15 15 15 15 14 14 14 14 14 14 14 14 15 15 15 15 15 15 15 14 14 14 13 12 12 12 11 11 10 10 10 10 10 9
19 19 18 18 17 16 16 16 16 15 15 15 14 14 14 14 14 14 14 14 14 14 15 15 15 15 15 15 15 14 14 13 13 12 12 12 11 11 11 10 10 10 9 9
18 18 18 17 16 16 16 16 16 15 15 15 14 14 14 14 14 14 14 14 14 14 14 14 15 15 15 15 15 14 14 13 13 12 12 12 12 11 11 10 10 9 9 9
18 18 18 17 16 16 16 16 16 16 15 15 15 14 14 14 14 14 14 14 14 14 14 14 15 15 15 15 14 14 14 13 13 12 12 12 12 12 11 11 10 9 9 9
18 17 17 17 16 16 16 16 16 16 16 15 15 14 14 14 14 14 14 14 14 14 14 14 15 15 15 14 14 14 14 14 13 13 12 12 12 12 11 11 10 10 9 9
18 18 17 17 16 16 16 16 16 16 16 15 14 14 14 14 14 13 13 13 13 13 13 14 15 15 14 14 14 14 14 14 13 13 12 12 12 12 11 11 10 10 9 9
18 18 17 17 17 16 16 16 15 15 15 15 14 14 13 13 13 13 13 13 13 13 13 14 14 14 14 14 14 14 14 14 14 13 13 12 12 12 11 11 10 10 9 9
18 18 17 17 17 17 16 16 15 15 15 14 14 13 13 13 13 13 13 13 13 13 14 14 14 14 14 14 15 15 14 14 13 13 13 13 12 12 11 11 10 10 10 9
17 17 17 17 17 16 16 16 15 15 14 14 13 13 13 13 13 13 13 13 13 13 13 13 13 13 14 14 15 15 14 14 13 13 13 13 12 12 12 11 11 10 10 9
17 17 17 16 16 16 16 15 15 14 14 13 13 13 13 13 13 13 13 13 13 13 13 13 13 13 14 14 15 14 14 13 13 13 13 13 13 12 12 12 11 10 10 9
16 16 16 16 16 16 15 15 15 14 14 13 13 13 12 12 12 12 12 13 12 13 13 13 13 13 14 14 14 14 13 13 13 13 13 13 13 12 12 12 11 11 10 10
16 16 16 16 16 15 15 15 15 14 14 13 13 13 12 12 12 13 13 13 13 13 13 13 13 13 13 13 13 12 12 13 13 13 13 13 13 12 12 12 11 11 10 10
15 15 16 16 15 15 15 15 15 14 14 13 13 13 13 13 12 12 12 12 12 13 13 13 13 13 13 13 12 12 12 12 12 13 13 13 12 12 12 12 11 11 10 10
13 14 15 15 15 15 15 15 15 14 14 13 13 12 13 13 13 13 13 13 13 13 13 13 13 13 13 12 12 12 12 12 12 12 12 12 12 12 12 12 11 11 10 10
12 13 13 13 14 14 14 14 14 14 14 13 13 13 13 12 12 13 13 13 13 13 13 13 13 12 12 12 13 12 12 11 12 12 12 12 12 12 12 12 12 11 11 10
Wind_Speed
7 4 4 8 10 11 11 7 5 4 4 6 7 7 7 7 7 7 7 7 8 8 7 7 7 7 7 6 6 6 6 7 6 6 6 6 6 6 6 7 7 8 8 8
5 4 1 5 8 9 8 7 5 4 5 3 2 3 5 6 7 9 10 10 9 8 7 8 8 7 7 7 7 7 8 8 8 8 8 8 8 7 7 8 8 9 9 10
2 5 3 2 6 6 6 6 5 6 3 3 4 6 7 8 10 11 10 10 9 8 8 7 7 7 7 8 8 8 8 8 8 8 8 8 9 9 8 8 9 9 9 9
4 3 2 6 7 5 4 4 3 2 1 1 2 4 6 7 8 9 9 9 9 8 8 8 8 7 7 7 8 8 7 7 7 8 7 7 7 8 8 7 7 7 8 8
4 3 5 6 6 4 1 4 3 3 4 4 2 4 9 9 8 7 7 8 8 7 7 7 7 7 7 7 8 7 7 7 7 7 7 7 8 7 6 6 6 6 6 7
4 5 3 7 10 6 2 3 5 3 5 7 6 5 7 7 7 7 6 7 8 7 8 8 7 6 7 7 8 7 7 7 7 6 6 7 7 7 6 5 5 4 4 5
5 4 5 10 10 6 2 5 6 4 5 8 9 7 5 6 7 7 6 6 8 8 6 6 6 5 6 6 6 5 5 5 5 6 5 6 6 6 6 5 5 5 5 5
3 3 4 11 8 4 6 7 6 5 6 6 5 5 6 6 6 7 7 7 7 7 7 7 5 6 5 4 3 2 2 3 4 4 6 7 6 6 6 6 6 7 6 6
3 4 7 9 5 6 5 6 6 6 5 3 4 6 6 6 6 6 7 7 6 6 7 7 7 5 5 3 1 0 2 2 2 4 5 6 7 7 6 6 6 6 6 6
2 7 9 9 6 6 4 5 6 5 4 3 4 6 6 5 6 6 7 6 6 7 8 8 7 5 5 5 3 1 2 2 4 6 6 6 6 6 6 7 6 6 7 7
4 6 9 9 8 9 8 6 7 5 4 3 3 4 5 5 6 6 6 6 6 7 7 8 8 7 7 7 7 4 2 4 5 5 5 6 6 6 6 6 5 5 5 6
2 8 7 11 12 12 10 8 8 7 5 4 2 3 5 5 5 5 6 7 7 6 7 8 8 8 8 7 7 6 4 5 5 4 3 4 5 5 8 6 6 7 7 6
3 5 4 11 15 14 12 10 8 6 5 3 2 3 3 4 4 5 6 7 7 7 6 7 8 8 8 8 7 6 4 5 5 4 3 3 3 4 4 3 3 4 5 7
6 6 6 9 13 13 12 11 9 8 6 3 1 1 2 4 4 5 6 6 7 7 6 7 7 7 8 8 7 4 4 5 4 3 3 3 3 3 3 3 2 2 1 3
8 7 7 9 12 12 11 10 9 8 7 6 4 2 0 3 4 4 4 5 7 6 6 7 7 7 8 8 7 5 5 4 3 3 2 3 2 3 3 4 4 3 2 2
11 8 9 11 12 13 12 11 10 9 7 6 5 3 1 1 3 3 3 4 6 6 5 6 7 8 8 8 6 2 5 5 3 1 0 2 1 3 4 4 4 4 5 4
14 13 12 12 13 13 12 11 9 8 8 7 5 3 2 3 4 2 3 4 6 5 4 6 7 8 9 7 7 3 3 4 2 3 1 2 1 2 3 4 4 4 4 3
13 13 12 12 12 12 12 11 9 8 6 6 5 3 4 5 3 3 4 5 6 4 5 6 7 9 8 5 6 6 3 4 5 3 2 2 2 1 4 4 5 5 3 3
11 12 12 12 11 11 11 10 9 7 6 6 6 5 5 4 2 2 4 5 5 4 5 6 10 9 5 7 6 6 6 3 2 3 4 4 2 1 3 4 4 4 3 3
9 10 11 12 11 10 10 9 9 7 7 7 6 6 5 5 4 2 3 4 2 2 4 6 7 7 6 7 8 7 8 5 3 2 4 5 4 3 3 4 4 3 3 3
8 9 10 10 10 10 9 10 9 8 7 7 6 6 6 5 4 3 3 4 0 4 3 8 6 3 5 7 9 7 7 6 4 3 3 4 4 4 4 4 5 4 4 3
7 8 10 10 9 9 9 9 9 9 8 8 7 6 6 5 4 5 5 5 3 4 1 5 3 4 7 9 6 7 7 6 5 3 2 3 3 4 4 5 5 5 4 4
7 9 10 11 11 11 10 10 9 9 9 8 8 8 7 6 4 3 3 2 3 5 1 4 4 7 10 8 7 7 7 6 5 4 4 3 3 3 4 5 5 5 5 5
5 7 8 10 11 11 12 11 10 8 9 8 8 8 7 5 5 5 5 5 6 5 4 6 8 10 10 7 8 7 6 5 4 4 3 4 4 3 3 5 5 5 5 6
6 5 6 8 9 9 9 10 10 9 9 7 8 8 7 5 5 4 4 3 7 7 5 6 9 10 8 7 7 5 5 5 3 2 1 2 3 3 2 4 5 5 5 5
7 5 4 4 5 4 5 6 7 7 7 7 6 6 6 6 6 5 4 5 7 7 6 5 6 8 6 4 4 5 6 6 4 4 4 3 3 5 4 4 5 5 6 6
8 5 3 4 4 3 3 4 5 7 7 7 7 7 7 6 6 7 7 6 6 6 6 6 6 5 5 4 4 6 6 5 5 4 4 5 5 5 5 6 5 5 4 4
Wind_Direction
88 83 44 49 49 54 55 58 58 47 20 337 333 342 345 345 347 360 15 26 31 26 25 35 39 38 40 43 41 39 37 35 29 26 19 17 17 15 13 9 10 10 10 20
152 138 59 66 64 65 65 64 80 78 47 336 334 345 347 358 14 27 27 27 31 31 30 39 45 47 41 46 46 47 46 43 37 36 32 30 28 26 31 33 29 28 30 35
126 150 221 94 75 75 69 66 50 47 22 349 30 33 26 21 28 32 27 19 19 28 29 35 49 59 57 50 47 46 47 45 40 37 36 31 28 25 32 43 38 36 34 36
292 228 51 97 106 105 93 95 76 51 42 22 69 77 57 37 33 29 23 13 6 19 32 30 31 48 66 64 53 43 41 47 44 37 32 30 31 35 29 32 39 40 31 28
328 350 123 146 155 164 122 104 101 40 29 12 174 117 59 38 37 35 24 8 355 4 26 27 24 29 46 58 57 43 34 38 39 33 26 23 25 33 36 31 35 49 31 23
301 311 50 123 132 145 205 151 125 74 34 29 54 66 42 27 30 29 27 9 353 359 16 14 9 17 36 52 54 43 30 28 27 25 26 28 21 21 28 30 30 57 50 33
289 302 96 122 136 167 232 122 126 95 53 47 48 46 29 25 26 16 20 17 359 355 0 348 347 5 39 49 56 55 35 23 17 11 27 48 29 22 24 20 21 29 41 34
297 294 128 142 162 193 99 117 125 101 68 55 43 40 30 27 24 13 10 18 3 350 341 328 349 13 25 59 64 78 70 30 11 36 38 37 32 30 26 17 26 29 24 21
0 60 109 154 160 103 121 138 118 100 83 58 37 35 26 21 24 13 8 15 357 345 345 345 359 4 355 35 44 271 110 53 27 62 69 51 33 33 29 28 28 25 19 16
247 170 162 180 157 141 169 126 111 108 106 63 38 32 19 22 30 14 4 1 355 6 1 341 336 349 9 6 335 289 142 94 68 63 68 69 45 37 41 29 24 20 16 11
240 142 152 182 179 169 169 153 143 137 117 81 44 29 12 27 27 7 356 358 9 14 347 336 350 14 27 7 343 341 93 99 87 80 75 87 74 46 47 58 42 22 7 3
235 161 172 184 181 174 170 173 164 156 147 131 86 36 15 27 22 4 0 4 4 359 347 351 1 15 22 2 344 349 43 75 70 79 80 107 123 96 53 67 61 52 38 26
79 127 143 155 169 172 173 178 169 162 156 148 113 65 16 12 23 13 9 6 351 342 353 2 4 16 8 353 344 350 37 70 74 55 54 68 112 140 139 99 53 40 35 36
130 145 139 153 164 170 178 177 169 171 169 172 134 55 7 358 17 14 8 357 335 333 3 8 9 15 358 341 332 349 71 84 84 79 54 61 58 71 102 132 140 148 69 28
172 178 161 159 160 173 180 177 180 187 186 179 171 198 337 359 357 349 356 354 333 341 6 4 14 9 347 333 335 10 52 68 65 72 64 80 77 80 80 80 82 77 68 26
180 188 166 169 173 181 186 187 192 199 192 183 181 195 192 299 297 301 350 351 330 337 352 7 18 357 332 324 331 43 94 77 45 353 127 105 81 90 91 84 79 73 58 25
181 191 184 182 183 188 193 196 201 205 191 182 187 184 228 263 276 320 350 327 309 310 10 30 21 342 321 330 341 339 141 141 178 273 260 99 93 105 111 104 96 92 89 54
193 195 193 191 190 191 195 199 204 206 192 175 157 177 238 256 288 336 322 312 313 333 45 35 9 325 310 14 358 338 316 180 193 201 127 86 29 92 117 118 118 122 139 144
193 194 195 197 195 192 194 197 196 195 187 169 170 207 231 245 271 301 313 314 317 343 17 14 340 315 336 58 7 323 308 296 208 162 135 132 233 221 132 127 127 129 132 134
196 194 195 197 196 191 190 189 187 187 185 177 187 208 224 233 227 244 288 294 281 71 8 348 320 313 360 29 359 320 307 298 279 214 166 172 199 178 152 141 138 137 136 131
203 200 199 199 194 189 186 185 183 183 180 179 195 212 221 229 215 217 246 279 53 87 350 312 298 352 18 347 320 299 293 293 281 257 192 180 191 176 172 162 155 155 149 143
214 209 205 203 195 191 189 191 186 182 181 183 194 216 228 230 232 234 231 220 209 143 263 299 326 16 340 326 299 285 281 283 282 270 230 199 190 183 183 169 157 157 159 158
221 214 210 208 205 200 194 198 194 185 186 189 193 203 215 218 223 234 255 213 148 135 221 287 320 320 318 313 294 285 276 266 259 250 219 205 206 198 183 163 157 156 161 161
263 225 213 208 207 205 203 200 200 190 183 185 193 198 205 209 213 216 226 221 189 179 233 270 284 289 298 292 282 283 290 282 256 248 233 197 193 200 187 165 160 160 165 164
303 273 234 213 211 211 209 199 196 192 183 185 192 196 204 207 209 217 233 222 175 182 229 261 269 272 275 275 286 307 312 306 306 300 267 204 181 185 203 177 167 166 169 170
318 307 296 254 230 213 207 200 192 184 182 185 193 196 197 196 199 202 214 240 243 226 225 243 256 262 262 280 315 309 297 290 262 219 223 233 212 191 202 211 189 177 174 172
315 302 299 296 283 250 234 216 198 191 186 187 194 199 202 200 195 197 206 216 227 224 221 226 235 247 262 273 274 278 284 288 287 256 219 212 213 203 195 200 196 184 172 165
Height
1554 1555 1555 1558 1560 1561 1565 1570 1575 1577 1575 1572 1566 1562 1559 1555 1551 1548 1545 1542 1539 1536 1533 1530 1528 1525 1522 1519 1517 1515 1514 1513 1512 1512 1511 1510 1510 1509 1509 1508 1508 1508 1508 1508
1551 1553 1553 1556 1559 1561 1565 1567 1570 1571 1571 1568 1565 1563 1560 1557 1554 1551 1548 1545 1543 1540 1537 1535 1532 1530 1527 1524 1522 1520 1517 1516 1515 1513 1512 1511 1511 1510 1509 1508 1507 1507 1506 1507
1546 1548 1552 1558 1559 1562 1564 1565 1567 1569 1570 1565 1564 1562 1560 1558 1556 1554 1551 1549 1546 1544 1541 1539 1536 1534 1531 1529 1527 1524 1522 1520 1518 1516 1515 1513 1512 1511 1510 1509 1508 1507 1506 1505
1543 1545 1557 1563 1558 1561 1563 1564 1564 1565 1564 1564 1563 1563 1562 1560 1558 1557 1555 1552 1550 1547 1545 1543 1540 1538 1535 1533 1530 1528 1526 1524 1522 1520 1518 1517 1515 1514 1512 1511 1509 1508 1507 1506
1545 1549 1555 1559 1558 1559 1561 1563 1563 1563 1563 1561 1561 1562 1562 1562 1560 1559 1557 1555 1552 1550 1548 1546 1544 1541 1539 1536 1534 1532 1530 1528 1526 1524 1522 1520 1518 1516 1514 1513 1511 1510 1509 1508
1547 1550 1555 1555 1555 1559 1562 1563 1562 1563 1563 1562 1561 1563 1565 1563 1561 1560 1559 1557 1554 1552 1551 1548 1546 1544 1541 1539 1537 1535 1533 1531 1529 1527 1524 1522 1520 1518 1517 1515 1514 1512 1511 1509
1547 1548 1549 1551 1556 1559 1565 1564 1562 1563 1564 1564 1564 1566 1566 1564 1562 1561 1559 1557 1555 1554 1552 1550 1548 1546 1543 1541 1539 1537 1535 1533 1531 1529 1527 1524 1522 1520 1518 1517 1516 1514 1513 1511
1545 1547 1556 1552 1555 1557 1558 1559 1561 1563 1564 1565 1566 1565 1565 1564 1563 1561 1560 1558 1556 1554 1552 1550 1548 1546 1544 1542 1540 1538 1537 1535 1533 1531 1529 1526 1524 1521 1520 1518 1517 1516 1515 1513
1545 1551 1549 1552 1553 1555 1557 1559 1561 1563 1565 1566 1566 1566 1565 1564 1563 1561 1560 1558 1556 1554 1552 1550 1548 1547 1545 1543 1541 1539 1537 1536 1534 1532 1530 1528 1525 1523 1521 1520 1519 1518 1516 1515
1543 1544 1548 1551 1553 1555 1558 1559 1562 1564 1565 1566 1566 1566 1565 1564 1563 1561 1559 1558 1556 1554 1552 1550 1548 1547 1545 1543 1541 1539 1538 1536 1535 1534 1532 1530 1527 1525 1524 1522 1521 1520 1518 1516
1541 1541 1546 1549 1551 1554 1557 1559 1561 1563 1564 1565 1566 1565 1565 1564 1562 1561 1560 1558 1556 1554 1552 1551 1549 1547 1545 1543 1541 1540 1539 1538 1536 1535 1533 1531 1530 1528 1526 1525 1524 1522 1521 1519
1537 1536 1541 1545 1548 1552 1555 1558 1560 1562 1564 1565 1565 1565 1565 1564 1562 1561 1560 1558 1556 1555 1553 1551 1549 1547 1545 1543 1542 1541 1540 1538 1537 1536 1535 1534 1532 1531 1529 1528 1527 1525 1523 1521
1535 1536 1538 1540 1545 1549 1553 1556 1559 1561 1563 1564 1564 1564 1564 1564 1563 1561 1560 1558 1556 1555 1553 1551 1549 1547 1545 1543 1542 1541 1541 1539 1538 1538 1537 1536 1535 1533 1532 1531 1530 1528 1526 1524
1535 1537 1539 1541 1544 1548 1551 1554 1557 1559 1561 1562 1563 1563 1563 1563 1562 1561 1559 1558 1556 1555 1554 1551 1549 1547 1545 1544 1543 1542 1541 1540 1539 1539 1538 1538 1537 1536 1534 1533 1532 1530 1529 1527
1534 1536 1538 1540 1543 1547 1550 1552 1555 1557 1559 1560 1561 1561 1562 1561 1561 1560 1559 1557 1556 1555 1553 1551 1549 1547 1545 1544 1543 1543 1542 1541 1540 1540 1540 1539 1538 1537 1536 1535 1534 1533 1531 1529
1532 1535 1537 1539 1542 1545 1547 1550 1552 1555 1556 1558 1559 1560 1560 1560 1559 1559 1558 1556 1555 1554 1552 1551 1549 1547 1545 1544 1544 1543 1542 1541 1540 1540 1540 1540 1539 1539 1538 1537 1535 1534 1532 1531
1528 1531 1534 1536 1539 1542 1545 1547 1550 1552 1554 1555 1556 1557 1558 1558 1558 1557 1556 1555 1554 1553 1552 1550 1548 1547 1545 1544 1544 1543 1542 1541 1541 1540 1541 1540 1540 1539 1538 1537 1536 1535 1534 1532
1525 1528 1531 1533 1536 1539 1542 1545 1547 1549 1551 1552 1553 1554 1555 1556 1556 1555 1554 1553 1553 1552 1550 1548 1547 1546 1544 1544 1543 1542 1542 1542 1541 1541 1540 1540 1540 1539 1539 1538 1537 1536 1535 1534
1522 1525 1528 1531 1533 1536 1539 1541 1544 1546 1548 1549 1550 1551 1552 1553 1553 1552 1552 1551 1550 1550 1548 1546 1545 1544 1544 1542 1542 1541 1541 1542 1541 1540 1539 1539 1539 1539 1539 1538 1537 1536 1535 1535
1519 1522 1525 1528 1530 1533 1535 1538 1540 1542 1544 1546 1547 1548 1549 1549 1550 1550 1549 1549 1548 1547 1546 1545 1543 1542 1542 1540 1540 1539 1539 1540 1540 1540 1539 1538 1538 1538 1538 1538 1537 1536 1536 1535
1516 1518 1521 1524 1526 1529 1531 1534 1536 1538 1540 1542 1543 1544 1545 1546 1547 1547 1546 1546 1546 1545 1544 1543 1542 1540 1539 1538 1537 1537 1536 1537 1538 1538 1538 1537 1537 1537 1537 1537 1536 1536 1535 1534
1513 1515 1517 1520 1522 1525 1527 1530 1532 1534 1536 1537 1539 1540 1541 1542 1543 1543 1543 1544 1543 1542 1541 1540 1540 1538 1537 1536 1535 1534 1534 1534 1535 1535 1536 1536 1536 1535 1535 1535 1535 1535 1534 1533
1511 1512 1513 1516 1518 1521 1523 1526 1528 1529 1531 1532 1534 1535 1537 1538 1539 1540 1540 1541 1540 1539 1539 1538 1537 1536 1534 1533 1532 1531 1531 1532 1532 1533 1533 1533 1534 1534 1534 1534 1533 1533 1533 1532
1508 1509 1510 1512 1514 1517 1519 1521 1523 1525 1526 1528 1529 1531 1532 1534 1534 1535 1536 1537 1536 1536 1536 1535 1534 1533 1532 1531 1529 1529 1529 1529 1529 1530 1531 1531 1531 1531 1532 1532 1531 1531 1531 1530
1506 1506 1507 1508 1510 1511 1514 1517 1519 1521 1522 1523 1524 1526 1527 1528 1530 1531 1532 1532 1532 1532 1532 1531 1531 1530 1529 1528 1527 1527 1526 1526 1526 1526 1527 1528 1528 1528 1529 1529 1529 1529 1528 1528
1505 1504 1504 1505 1506 1508 1510 1512 1513 1515 1517 1518 1519 1521 1522 1523 1524 1526 1527 1527 1528 1528 1528 1527 1527 1526 1526 1526 1525 1523 1522 1522 1522 1523 1523 1524 1525 1525 1525 1526 1526 1526 1526 1526
1503 1503 1502 1502 1502 1504 1505 1507 1508 1510 1511 1513 1514 1516 1517 1518 1519 1520 1521 1522 1523 1523 1523 1523 1523 1523 1523 1522 1521 1520 1519 1519 1519 1519 1519 1519 1520 1521 1521 1522 1522 1523 1523 1523